Bar Harbor, ME

6:39 AM EST on December 13, 2017 (GMT -0500)
Hancock County-Bar Harbor

Weather History for KBHB - April, 2013

Change the Weather History Date:

Tuesday, April 16, 2013

  Actual Average Record
Temperature  
Mean Temperature 44 °F -  
Max Temperature 48 °F 54 °F 75 °F (1976)
Min Temperature 39 °F 32 °F 20 °F (1981)
Degree Days  
Heating Degree Days 22    
Moisture  
Dew Point 40 °F    
Average Humidity 89    
Maximum Humidity 100    
Minimum Humidity 66    
Precipitation  
Precipitation 0.00 in - - ()
Sea Level Pressure  
Sea Level Pressure 30.26 in    
Wind  
Wind Speed 12 mph (SSW)    
Max Wind Speed 26 mph    
Max Gust Speed 34 mph    
Visibility 10 miles    
Events      
Averages and records for this station are not official NWS values.
T = Trace of Precipitation, MM = Missing Value Source: NWS Daily Summary

Daily Weather History Graph

Daily Weather History Graph

Search for Another Location

Airport or City:

Trip Planner

Search our weather history database for the weather conditions in past years. The results will help you decide how hot, cold, wet, or windy it might be!

Date:

Astronomy

Apr. 16, 2013 Rise Set
Actual Time 5:47 AM EDT 7:19 PM EDT
Civil Twilight 5:17 AM EDT 7:50 PM EDT
Nautical Twilight 4:40 AM EDT 8:27 PM EDT
Astronomical Twilight 4:00 AM EDT 9:06 PM EDT
Moon 9:56 AM EDT (4/16) 12:20 AM EDT (4/16)
Length of Visible Light 14h 33m
Length of Day
13h 32m
Waxing Crescent, 33% of the Moon is Illuminated
Apr 16
Waxing Crescent
Apr 18
First Quarter
Apr 25
Full
May 2
Last Quarter
May 9
New

Hourly Weather History & Observations

Time (EDT) Temp. Windchill Dew Point Humidity Pressure Visibility Wind Dir Wind Speed Gust Speed Precip Events Conditions
12:15 AM 39.2 °F 35.0 °F 37.4 °F 93% 30.43 in 10.0 mi SSW 5.8 mph - N/A   Overcast
12:35 AM 39.2 °F 35.9 °F 37.4 °F 93% 30.43 in 10.0 mi SW 4.6 mph - N/A   Overcast
12:55 AM 39.2 °F 37.0 °F 37.4 °F 93% 30.43 in 10.0 mi SSW 3.5 mph - N/A   Overcast
1:15 AM 39.2 °F 35.0 °F 37.4 °F 93% 30.43 in 10.0 mi SSW 5.8 mph - N/A   Overcast
1:35 AM 39.2 °F 35.0 °F 37.4 °F 93% 30.43 in 10.0 mi SSW 5.8 mph - N/A   Overcast
1:55 AM 39.2 °F 33.0 °F 37.4 °F 93% 30.42 in 10.0 mi SSW 9.2 mph - N/A   Overcast
2:15 AM 39.2 °F 34.2 °F 37.4 °F 93% 30.42 in 10.0 mi SW 6.9 mph - N/A   Overcast
2:35 AM 39.2 °F 35.9 °F 37.4 °F 93% 30.42 in 10.0 mi SSW 4.6 mph - N/A   Overcast
2:55 AM 39.2 °F 35.9 °F 37.4 °F 93% 30.41 in 10.0 mi SSW 4.6 mph - N/A   Overcast
3:15 AM 39.2 °F 37.0 °F 37.4 °F 93% 30.41 in 10.0 mi SSW 3.5 mph - N/A   Overcast
3:35 AM 39.2 °F 35.0 °F 39.2 °F 100% 30.41 in 10.0 mi SSW 5.8 mph - N/A   Overcast
3:55 AM 39.2 °F 35.9 °F 39.2 °F 100% 30.42 in 10.0 mi SSW 4.6 mph - N/A   Overcast
4:15 AM 39.2 °F 35.0 °F 39.2 °F 100% 30.41 in 10.0 mi SSW 5.8 mph - N/A   Overcast
4:35 AM 39.2 °F 35.0 °F 39.2 °F 100% 30.41 in 10.0 mi SSW 5.8 mph - N/A   Overcast
4:55 AM 39.2 °F 33.6 °F 39.2 °F 100% 30.41 in 10.0 mi SW 8.1 mph - N/A   Overcast
5:15 AM 39.2 °F 33.0 °F 39.2 °F 100% 30.42 in 10.0 mi SW 9.2 mph - N/A   Overcast
5:35 AM 39.2 °F 33.0 °F 39.2 °F 100% 30.41 in 10.0 mi SSW 9.2 mph - N/A   Overcast
5:55 AM 39.2 °F 31.6 °F 39.2 °F 100% 30.41 in 10.0 mi South 12.7 mph - N/A   Overcast
6:15 AM 39.2 °F 32.5 °F 39.2 °F 100% 30.40 in 10.0 mi South 10.4 mph - N/A   Overcast
6:35 AM 39.2 °F 33.0 °F 37.4 °F 93% 30.40 in 10.0 mi South 9.2 mph - N/A   Overcast
6:55 AM 39.2 °F 31.2 °F 37.4 °F 93% 30.41 in 10.0 mi South 13.8 mph - N/A   Overcast
7:15 AM 39.2 °F 31.2 °F 39.2 °F 100% 30.41 in 10.0 mi South 13.8 mph - N/A   Overcast
7:35 AM 41.0 °F 33.5 °F 39.2 °F 93% 30.40 in 10.0 mi South 13.8 mph - N/A   Overcast
8:15 AM 41.0 °F 33.9 °F 39.2 °F 93% 30.39 in 10.0 mi South 12.7 mph - N/A   Overcast
8:35 AM 41.0 °F 33.9 °F 39.2 °F 93% 30.38 in 10.0 mi South 12.7 mph - N/A   Overcast
8:55 AM 42.8 °F 35.8 °F 39.2 °F 87% 30.39 in 10.0 mi SSW 13.8 mph - N/A   Overcast
9:35 AM 42.8 °F 35.8 °F 39.2 °F 87% 30.38 in 10.0 mi South 13.8 mph 19.6 mph N/A   Overcast
9:55 AM 42.8 °F 34.5 °F 39.2 °F 87% 30.38 in 10.0 mi SSW 18.4 mph - N/A   Overcast
10:15 AM 42.8 °F 33.8 °F 39.2 °F 87% 30.38 in 10.0 mi South 21.9 mph 25.3 mph N/A   Overcast
10:35 AM 44.6 °F 36.9 °F 41.0 °F 87% 30.37 in 10.0 mi SSW 18.4 mph 23.0 mph N/A   Overcast
10:55 AM 46.4 °F 39.0 °F 41.0 °F 81% 30.37 in 10.0 mi South 19.6 mph 24.2 mph N/A   Mostly Cloudy
11:15 AM 46.4 °F 38.5 °F 41.0 °F 81% 30.35 in 10.0 mi South 21.9 mph - N/A   Mostly Cloudy
11:35 AM 46.4 °F 38.7 °F 41.0 °F 81% 30.35 in 10.0 mi South 20.7 mph 27.6 mph N/A   Scattered Clouds
11:55 AM 46.4 °F 38.7 °F 39.2 °F 76% 30.34 in 10.0 mi SSW 20.7 mph 25.3 mph N/A   Partly Cloudy
12:15 PM 46.4 °F 38.5 °F 39.2 °F 76% 30.33 in 10.0 mi SSW 21.9 mph 28.8 mph N/A   Mostly Cloudy
12:35 PM 46.4 °F 38.7 °F 39.2 °F 76% 30.31 in 10.0 mi SSW 20.7 mph 26.5 mph N/A   Overcast
12:55 PM 48.2 °F - 39.2 °F 71% 30.30 in 10.0 mi SSW 21.9 mph 25.3 mph N/A   Overcast
1:15 PM 48.2 °F - 39.2 °F 71% 30.28 in 10.0 mi SSW 20.7 mph - N/A   Overcast
1:35 PM 48.2 °F - 37.4 °F 66% 30.28 in 10.0 mi SSW 20.7 mph 27.6 mph N/A   Mostly Cloudy
1:55 PM 48.2 °F - 37.4 °F 66% 30.26 in 10.0 mi South 23.0 mph 27.6 mph N/A   Mostly Cloudy
2:35 PM 48.2 °F - 39.2 °F 71% 30.23 in 10.0 mi SSW 20.7 mph 26.5 mph N/A   Mostly Cloudy
2:55 PM 46.4 °F 37.9 °F 37.4 °F 71% 30.22 in 10.0 mi South 25.3 mph 34.5 mph N/A   Scattered Clouds
3:15 PM 46.4 °F 38.1 °F 39.2 °F 76% 30.21 in 10.0 mi South 24.2 mph 29.9 mph N/A   Mostly Cloudy
3:35 PM 46.4 °F 38.7 °F 39.2 °F 76% 30.19 in 10.0 mi South 20.7 mph 27.6 mph N/A   Partly Cloudy
3:55 PM 48.2 °F - 39.2 °F 71% 30.19 in 10.0 mi South 24.2 mph 27.6 mph N/A   Mostly Cloudy
4:15 PM 46.4 °F 38.3 °F 39.2 °F 76% 30.17 in 10.0 mi South 23.0 mph 28.8 mph N/A   Mostly Cloudy
4:35 PM 46.4 °F 39.5 °F 41.0 °F 81% 30.17 in 10.0 mi SSW 17.3 mph 28.8 mph N/A   Mostly Cloudy
4:55 PM 46.4 °F 38.3 °F 41.0 °F 81% 30.16 in 10.0 mi South 23.0 mph 28.8 mph N/A   Mostly Cloudy
5:15 PM 44.6 °F 36.1 °F 42.8 °F 93% 30.15 in 10.0 mi SSW 21.9 mph 32.2 mph N/A   Mostly Cloudy
5:35 PM 44.6 °F 36.1 °F 42.8 °F 93% 30.14 in 10.0 mi South 21.9 mph 33.4 mph N/A   Overcast
5:55 PM 44.6 °F 36.1 °F 42.8 °F 93% 30.12 in 10.0 mi South 21.9 mph 27.6 mph N/A   Overcast
6:15 PM 44.6 °F 36.4 °F 42.8 °F 93% 30.11 in 5.0 mi South 20.7 mph 26.5 mph N/A   Overcast
6:35 PM 44.6 °F 37.2 °F 42.8 °F 93% 30.10 in 8.0 mi South 17.3 mph 23.0 mph N/A   Overcast
6:55 PM 44.6 °F 36.6 °F 42.8 °F 93% 30.08 in 5.0 mi South 19.6 mph 23.0 mph N/A   Overcast
7:15 PM 44.6 °F 36.6 °F 42.8 °F 93% 30.09 in 6.0 mi SSW 19.6 mph 26.5 mph N/A   Overcast
7:35 PM 44.6 °F 36.1 °F 42.8 °F 93% 30.07 in 5.0 mi SSW 21.9 mph 28.8 mph N/A   Overcast
7:55 PM 44.6 °F 35.3 °F 42.8 °F 93% 30.05 in 10.0 mi SSW 26.5 mph 32.2 mph N/A   Overcast
8:15 PM 44.6 °F 35.5 °F 42.8 °F 93% 30.05 in 10.0 mi SSW 25.3 mph 32.2 mph N/A   Overcast
8:35 PM 44.6 °F 35.9 °F 42.8 °F 93% 30.06 in 10.0 mi SSW 23.0 mph 33.4 mph N/A   Overcast
8:55 PM 44.6 °F 36.9 °F 44.6 °F 100% 30.04 in 10.0 mi SSW 18.4 mph 24.2 mph N/A   Overcast
9:15 PM 44.6 °F 37.8 °F 44.6 °F 100% 30.03 in 10.0 mi SSW 15.0 mph 25.3 mph N/A   Overcast
9:35 PM 44.6 °F 36.9 °F 44.6 °F 100% 30.01 in 10.0 mi SSW 18.4 mph 25.3 mph N/A   Overcast
9:55 PM 44.6 °F 36.6 °F 44.6 °F 100% 30.00 in 10.0 mi SSW 19.6 mph 27.6 mph N/A   Overcast
10:15 PM 44.6 °F 36.9 °F 44.6 °F 100% 29.99 in 10.0 mi SSW 18.4 mph 25.3 mph N/A   Overcast
10:35 PM 44.6 °F 37.4 °F 44.6 °F 100% 29.99 in 9.0 mi SSW 16.1 mph 19.6 mph N/A   Overcast
10:55 PM 46.4 °F 39.8 °F 44.6 °F 93% 29.97 in 10.0 mi SSW 16.1 mph 20.7 mph N/A   Overcast
11:15 PM 46.4 °F 39.5 °F 44.6 °F 93% 29.96 in 4.0 mi SSW 17.3 mph 23.0 mph N/A   Overcast
11:35 PM 46.4 °F 39.8 °F 44.6 °F 93% 29.95 in 6.0 mi SSW 16.1 mph 21.9 mph N/A   Overcast
11:55 PM 46.4 °F 39.5 °F 44.6 °F 93% 29.93 in 10.0 mi SSW 17.3 mph 24.2 mph N/A   Overcast